This is the latest recevied weather packets stored in our database for station/object SQ3VAS-10. If no packets are shown the sender has not sent any weather packets the latest 10 day(s).
| Time | Temp. | Humidity | Pressure | Rain* | Wind** | Luminosity | Snow |
|---|---|---|---|---|---|---|---|
| 1778301431 | 5.56° C | 86% | 1022.7 hPa | - | - | - | - |
| 1778300859 | 5° C | 86% | 1022.8 hPa | - | - | - | - |
| 1778300287 | 5° C | 86% | 1022.8 hPa | - | - | - | - |
| 1778299716 | 5° C | 85% | 1022.8 hPa | - | - | - | - |
| 1778299144 | 5° C | 86% | 1022.8 hPa | - | - | - | - |
| 1778298572 | 4.44° C | 84% | 1022.7 hPa | - | - | - | - |
| 1778298001 | 4.44° C | 86% | 1022.8 hPa | - | - | - | - |
| 1778297429 | 4.44° C | 86% | 1022.8 hPa | - | - | - | - |
| 1778296858 | 4.44° C | 83% | 1022.8 hPa | - | - | - | - |
| 1778296286 | 4.44° C | 84% | 1022.9 hPa | - | - | - | - |
| 1778295715 | 5° C | 84% | 1022.8 hPa | - | - | - | - |
| 1778295143 | 5° C | 84% | 1022.6 hPa | - | - | - | - |
| 1778294571 | 5° C | 84% | 1022.6 hPa | - | - | - | - |
| 1778294000 | 5.56° C | 83% | 1022.6 hPa | - | - | - | - |
| 1778293428 | 5.56° C | 84% | 1022.6 hPa | - | - | - | - |
| 1778292856 | 5.56° C | 84% | 1022.5 hPa | - | - | - | - |
| 1778292286 | 5.56° C | 83% | 1022.5 hPa | - | - | - | - |
| 1778291714 | 5.56° C | 84% | 1022.5 hPa | - | - | - | - |
| 1778291142 | 5.56° C | 84% | 1022.4 hPa | - | - | - | - |
| 1778290571 | 5.56° C | 84% | 1022.6 hPa | - | - | - | - |
| 1778289999 | 5.56° C | 83% | 1022.5 hPa | - | - | - | - |
| 1778289428 | 5.56° C | 83% | 1022.4 hPa | - | - | - | - |
| 1778288856 | 6.11° C | 83% | 1022.4 hPa | - | - | - | - |
| 1778288285 | 6.11° C | 82% | 1022.5 hPa | - | - | - | - |
| 1778287713 | 6.11° C | 83% | 1022.5 hPa | - | - | - | - |
* Rain since midnight (hover to see other rain measurements)
** Current wind speed in m/s (hover to see current wind gust speed)